period_start,C,m1,H,J0,J1,J2,J3,J4,J5,JA,JB,JC,JD,JJ,JK,JN,#
2017-06-27 00:03:46,0.01,0.60,0.00,32.80,37.12,39.37,13.22,41.22,1006.41,1986.83,3192.96,2880.41,3268.00,599.74,570.92,28.36,0000 0000 0000 0000 000000
2017-06-27 00:08:48,0.02,0.60,0.00,32.80,37.10,39.36,13.27,41.17,1006.36,1986.91,3192.52,2880.19,3268.00,600.24,571.38,28.41,0000 0000 0000 0000 000000
2017-06-27 00:13:49,0.01,0.60,0.00,32.80,37.10,39.36,13.28,41.17,1006.57,1986.94,3192.03,2880.07,3267.91,599.94,571.18,28.46,0000 0000 0000 0000 000000
2017-06-27 00:18:50,0.01,0.60,0.00,32.80,37.10,39.34,13.22,41.16,1006.72,1986.94,3191.90,2880.00,3267.34,599.95,571.31,28.51,0000 0000 0000 0000 000000
2017-06-27 00:23:51,0.01,0.60,0.00,32.80,37.08,39.32,13.30,41.26,1006.58,1986.97,3191.27,2880.00,3267.06,600.20,571.44,28.56,0000 0000 0000 0000 000000
2017-06-27 00:28:53,0.00,0.61,0.00,32.80,37.08,39.33,13.24,41.25,1006.52,1986.99,3191.02,2880.00,3267.02,599.87,571.03,28.61,0000 0000 0000 0000 000000
2017-06-27 00:33:54,0.00,0.61,0.00,32.80,37.08,39.32,13.18,41.09,1006.61,1986.99,3190.99,2880.00,3267.00,599.61,570.90,28.66,0000 0000 0000 0000 000000
2017-06-27 00:38:55,0.01,0.61,0.00,32.79,37.06,39.31,13.23,41.13,1006.72,1986.99,3190.62,2879.96,3266.99,599.92,571.33,28.71,0000 0000 0000 0000 000000
2017-06-27 00:43:57,0.02,0.61,0.00,32.77,37.05,39.30,13.22,41.17,1006.82,1986.98,3190.01,2879.63,3266.58,599.87,571.30,28.76,0000 0000 0000 0000 000000
2017-06-27 00:48:58,0.03,0.61,0.00,32.77,37.05,39.29,13.30,41.17,1006.73,1986.99,3189.55,2879.24,3266.14,600.00,571.30,28.81,0000 0000 0000 0000 000000
2017-06-27 00:53:59,0.00,0.61,0.00,32.77,37.05,39.29,13.24,41.30,1006.66,1986.99,3189.03,2879.02,3266.00,599.67,570.98,28.86,0000 0000 0000 0000 000000
2017-06-27 00:59:00,0.00,0.61,0.00,32.77,37.04,39.29,13.27,41.30,1006.78,1986.99,3188.86,2879.00,3266.00,599.85,571.24,28.91,0000 0000 0000 0000 000000
2017-06-27 01:04:01,0.01,0.61,0.00,32.76,37.03,39.27,13.34,41.30,1006.83,1986.99,3188.16,2879.00,3265.85,600.27,571.65,28.96,0000 0000 0000 0000 000000
2017-06-27 01:09:03,0.01,0.61,0.00,32.76,37.03,39.28,13.23,41.36,1006.74,1986.99,3187.95,2878.99,3265.23,599.82,571.18,29.01,0000 0000 0000 0000 000000
2017-06-27 01:14:04,0.01,0.61,0.00,32.75,37.03,39.27,13.30,41.48,1006.58,1986.99,3187.48,2878.86,3265.01,600.44,571.81,29.06,0000 0000 0000 0000 000000
2017-06-27 01:19:05,0.02,0.61,0.00,32.75,37.03,39.27,13.27,41.62,1006.72,1986.99,3186.98,2878.23,3264.96,600.00,571.35,29.11,0000 0000 0000 0000 000000
2017-06-27 01:24:07,0.04,0.61,0.00,32.75,37.02,39.26,13.23,41.42,1006.60,1987.02,3186.08,2878.02,3264.30,599.93,571.27,29.16,0000 0000 0000 0000 000000
2017-06-27 01:29:08,0.03,0.62,0.00,32.75,37.00,39.25,13.31,41.42,1006.80,1987.14,3185.09,2877.97,3264.00,599.91,571.39,29.21,0000 0000 0000 0000 000000
2017-06-27 01:34:09,0.05,0.62,0.00,32.72,37.00,39.25,13.30,41.52,1006.88,1987.37,3184.83,2877.58,3263.95,599.86,571.43,29.26,0000 0000 0000 0000 000000
2017-06-27 01:39:11,0.03,0.62,0.00,32.72,37.00,39.24,13.32,41.39,1007.03,1987.48,3184.04,2877.04,3263.32,600.15,571.79,29.31,0000 0000 0000 0000 000000
2017-06-27 01:44:12,0.02,0.62,0.00,32.71,36.99,39.24,13.32,41.49,1007.28,1987.51,3183.77,2876.98,3263.01,600.03,571.83,29.36,0000 0000 0000 0000 000000
2017-06-27 01:49:13,0.03,0.62,0.00,32.70,36.98,39.24,13.30,41.50,1007.31,1987.78,3183.14,2876.75,3263.00,600.01,571.82,29.41,0000 0000 0000 0000 000000
2017-06-27 01:54:14,0.02,0.62,0.00,32.69,36.98,39.23,13.22,41.48,1007.34,1987.87,3182.96,2876.25,3262.99,599.45,571.34,29.46,0000 0000 0000 0000 000000
2017-06-27 01:59:15,0.02,0.63,0.00,32.67,36.97,39.23,13.27,41.30,1007.35,1987.89,3182.37,2876.02,3262.64,599.70,571.76,29.51,0000 0000 0000 0000 000000
2017-06-27 02:04:17,0.00,0.63,0.00,32.67,36.95,39.23,13.34,41.33,1007.35,1987.90,3182.01,2876.00,3262.19,600.28,572.18,29.56,0000 0000 0000 0000 000000
2017-06-27 02:09:18,0.01,0.63,0.00,32.65,36.95,39.22,13.28,41.42,1007.41,1987.96,3181.93,2875.97,3262.03,599.81,571.79,29.61,0000 0000 0000 0000 000000
2017-06-27 02:14:19,0.02,0.63,0.00,32.65,36.93,39.21,13.28,41.29,1007.53,1987.99,3181.39,2875.66,3262.00,600.08,572.13,29.66,0000 0000 0000 0000 000000
2017-06-27 02:19:21,0.01,0.63,0.00,32.63,36.93,39.19,13.26,41.27,1007.44,1987.99,3181.01,2875.16,3261.96,599.80,571.84,29.71,0000 0000 0000 0000 000000
2017-06-27 02:24:22,0.00,0.63,0.00,32.62,36.92,39.19,13.26,41.33,1007.63,1987.99,3180.94,2875.01,3261.78,600.03,572.28,29.76,0000 0000 0000 0000 000000
2017-06-27 02:29:23,0.02,0.63,0.00,32.60,36.90,39.17,13.32,41.42,1007.41,1987.99,3180.36,2874.99,3261.15,599.80,571.90,29.81,0000 0000 0000 0000 000000
2017-06-27 02:34:24,0.01,0.63,0.00,32.60,36.90,39.17,13.20,41.38,1007.37,1987.99,3180.01,2874.87,3261.00,599.66,571.80,29.86,0000 0000 0000 0000 000000
2017-06-27 02:39:26,0.01,0.63,0.00,32.60,36.89,39.16,13.24,41.33,1007.47,1987.99,3179.97,2874.44,3261.00,599.66,571.90,29.91,0000 0000 0000 0000 000000
2017-06-27 02:44:27,0.02,0.63,0.00,32.59,36.88,39.16,13.30,41.38,1007.75,1987.99,3179.44,2874.08,3260.89,600.01,572.35,29.96,0000 0000 0000 0000 000000
2017-06-27 02:49:28,0.01,0.63,0.00,32.59,36.88,39.13,13.28,41.36,1007.83,1987.99,3179.03,2874.00,3260.46,600.07,572.46,30.01,0000 0000 0000 0000 000000
2017-06-27 02:54:29,0.00,0.63,0.00,32.60,36.87,39.13,13.25,41.27,1007.98,1988.00,3179.00,2874.00,3260.05,599.83,572.26,30.06,0000 0000 0000 0000 000000
2017-06-27 02:59:30,0.01,0.63,0.00,32.60,36.85,39.11,13.35,41.30,1008.26,1988.02,3178.83,2873.95,3260.00,600.16,572.73,30.11,0000 0000 0000 0000 000000
2017-06-27 03:04:31,0.02,0.64,0.00,32.60,36.85,39.11,13.31,41.35,1007.91,1988.04,3178.28,2873.69,3260.00,599.89,572.32,30.16,0000 0000 0000 0000 000000
2017-06-27 03:09:33,0.01,0.64,0.00,32.60,36.85,39.10,13.31,41.36,1007.85,1988.08,3178.01,2873.22,3259.95,599.99,572.33,30.21,0000 0000 0000 0000 000000
2017-06-27 03:14:34,0.00,0.64,0.00,32.61,36.85,39.09,13.30,41.44,1007.86,1988.06,3177.99,2873.02,3259.68,600.15,572.46,30.26,0000 0000 0000 0000 000000
2017-06-27 03:19:36,0.02,0.64,0.00,32.63,36.85,39.08,13.26,41.39,1008.04,1988.14,3177.92,2873.00,3259.21,599.92,572.39,30.31,0000 0000 0000 0000 000000
2017-06-27 03:24:37,0.01,0.64,0.00,32.65,36.85,39.08,13.32,41.20,1008.30,1988.15,3177.38,2872.98,3259.03,600.24,572.81,30.36,0000 0000 0000 0000 000000
2017-06-27 03:29:38,0.01,0.64,0.00,32.65,36.85,39.08,13.25,41.34,1008.30,1988.15,3177.03,2872.84,3259.00,599.80,572.26,30.41,0000 0000 0000 0000 000000
2017-06-27 03:34:39,0.02,0.64,0.00,32.66,36.85,39.08,13.29,41.38,1008.29,1988.10,3176.97,2872.17,3258.75,599.99,572.43,30.46,0000 0000 0000 0000 000000
2017-06-27 03:39:41,0.01,0.64,0.00,32.66,36.85,39.07,13.31,41.45,1008.30,1988.09,3176.65,2872.00,3258.23,600.34,572.86,30.51,0000 0000 0000 0000 000000
2017-06-27 03:44:42,0.00,0.64,0.00,32.67,36.85,39.08,13.25,41.34,1008.31,1988.02,3176.02,2871.94,3258.00,600.02,572.52,30.56,0000 0000 0000 0000 000000
2017-06-27 03:49:43,0.01,0.64,0.00,32.67,36.85,39.08,13.34,41.33,1008.31,1988.03,3175.91,2871.65,3257.91,600.07,572.54,30.61,0000 0000 0000 0000 000000
2017-06-27 03:54:44,0.04,0.64,0.00,32.67,36.85,39.08,13.35,41.33,1008.31,1988.03,3175.27,2871.15,3257.37,600.21,572.69,30.66,0000 0000 0000 0000 000000
2017-06-27 03:59:46,0.01,0.64,0.00,32.67,36.85,39.08,13.26,41.24,1008.31,1988.06,3175.00,2871.00,3257.05,599.95,572.37,30.71,0000 0000 0000 0000 000000
2017-06-27 04:04:47,0.00,0.64,0.00,32.68,36.85,39.08,13.19,41.37,1008.31,1988.04,3174.92,2871.00,3257.00,599.51,572.04,30.76,0000 0000 0000 0000 000000
2017-06-27 04:09:48,0.02,0.65,0.00,32.70,36.85,39.08,13.29,41.42,1008.33,1988.07,3174.38,2870.87,3256.92,599.74,572.16,30.81,0000 0000 0000 0000 000000
2017-06-27 04:14:49,0.02,0.65,0.00,32.70,36.85,39.09,13.26,41.35,1008.33,1988.05,3174.03,2870.40,3256.47,599.99,572.43,30.86,0000 0000 0000 0000 000000
2017-06-27 04:19:50,0.01,0.65,0.00,32.70,36.85,39.08,13.24,41.39,1008.32,1988.06,3173.98,2870.04,3256.07,599.91,572.32,30.91,0000 0000 0000 0000 000000
2017-06-27 04:24:52,0.00,0.65,0.00,32.70,36.85,39.09,13.24,41.34,1008.33,1988.04,3173.60,2870.00,3256.00,599.76,572.08,30.96,0000 0000 0000 0000 000000
2017-06-27 04:29:53,0.01,0.65,0.00,32.70,36.85,39.10,13.26,41.38,1008.34,1988.02,3173.05,2869.94,3255.87,599.75,572.19,31.01,0000 0000 0000 0000 000000
2017-06-27 04:34:55,0.03,0.65,0.00,32.72,36.85,39.10,13.25,41.40,1008.44,1988.00,3172.98,2869.48,3255.32,599.97,572.43,31.06,0000 0000 0000 0000 000000
2017-06-27 04:39:56,0.01,0.65,0.00,32.72,36.85,39.09,13.31,41.29,1008.50,1988.00,3172.96,2869.18,3255.05,599.93,572.42,31.11,0000 0000 0000 0000 000000
2017-06-27 04:44:57,0.00,0.65,0.00,32.72,36.85,39.11,13.30,41.28,1008.50,1988.00,3172.81,2869.02,3255.00,600.08,572.54,31.16,0000 0000 0000 0000 000000
2017-06-27 04:49:58,0.01,0.65,0.00,32.72,36.85,39.10,13.31,41.32,1008.45,1988.00,3172.45,2869.00,3254.99,600.06,572.51,31.21,0000 0000 0000 0000 000000
2017-06-27 04:54:59,0.00,0.65,0.00,32.72,36.85,39.10,13.36,41.43,1008.46,1988.01,3172.08,2869.00,3254.91,600.39,572.83,31.26,0000 0000 0000 0000 000000
2017-06-27 05:00:01,-0.00,0.65,0.00,32.72,36.86,39.11,13.28,41.62,1008.33,1988.00,3172.17,2868.96,3254.75,599.76,572.15,31.31,0000 0000 0000 0000 000000
2017-06-27 05:05:02,0.02,0.65,0.00,32.73,36.87,39.11,13.24,41.67,1008.30,1988.00,3172.08,2868.75,3254.32,599.53,571.97,31.36,0000 0000 0000 0000 000000
2017-06-27 05:10:03,0.00,0.65,0.00,32.73,36.87,39.11,13.28,41.58,1008.11,1988.00,3172.01,2868.50,3254.11,599.85,572.10,31.41,0000 0000 0000 0000 000000
2017-06-27 05:15:04,0.01,0.65,0.00,32.75,36.88,39.12,13.30,41.56,1007.95,1988.00,3172.00,2868.19,3254.03,600.09,572.15,31.46,0000 0000 0000 0000 000000
2017-06-27 05:20:06,0.00,0.65,0.00,32.74,36.88,39.11,13.36,41.56,1008.07,1988.00,3171.99,2868.03,3254.00,600.19,572.34,31.51,0000 0000 0000 0000 000000
2017-06-27 05:25:07,0.00,0.65,0.00,32.73,36.88,39.12,13.26,41.50,1008.25,1988.00,3171.99,2868.01,3254.00,599.96,572.27,31.56,0000 0000 0000 0000 000000
2017-06-27 05:30:08,0.00,0.65,0.00,32.73,36.88,39.12,13.23,41.57,1008.33,1988.00,3171.99,2868.00,3253.99,599.73,572.11,31.61,0000 0000 0000 0000 000000
2017-06-27 05:35:09,0.00,0.65,0.00,32.72,36.88,39.12,13.33,41.48,1008.62,1987.99,3171.98,2868.00,3253.96,599.97,572.48,31.66,0000 0000 0000 0000 000000
2017-06-27 05:40:11,0.00,0.65,0.00,32.72,36.88,39.12,13.33,41.42,1008.80,1987.99,3171.93,2868.00,3253.85,599.99,572.71,31.71,0000 0000 0000 0000 000000
2017-06-27 05:45:12,0.01,0.65,0.00,32.72,36.88,39.12,13.27,41.45,1008.83,1987.97,3171.90,2867.99,3253.61,600.04,572.74,31.76,0000 0000 0000 0000 000000
2017-06-27 05:50:13,-0.00,0.65,0.00,32.73,36.88,39.13,13.24,41.45,1009.00,1987.99,3171.88,2867.98,3253.45,599.73,572.46,31.81,0000 0000 0000 0000 000000
2017-06-27 05:55:14,0.00,0.65,0.00,32.73,36.88,39.13,13.35,41.37,1009.26,1987.99,3171.92,2867.98,3253.58,600.12,573.00,31.86,0000 0000 0000 0000 000000
2017-06-27 06:00:16,0.01,0.66,0.00,32.73,36.89,39.13,13.26,41.37,1009.24,1987.99,3171.69,2867.92,3253.14,600.01,572.94,31.92,0000 0000 0000 0000 000000
2017-06-27 06:05:17,-0.01,0.65,0.00,32.74,36.90,39.14,13.31,41.52,1009.28,1987.97,3171.91,2867.90,3253.17,600.26,573.07,31.97,0000 0000 0000 0000 000000
2017-06-27 06:10:18,0.00,0.65,0.00,32.73,36.90,39.14,13.32,41.55,1009.28,1987.96,3171.97,2867.84,3253.10,600.11,573.02,32.02,0000 0000 0000 0000 000000
2017-06-27 06:15:20,0.00,0.66,0.00,32.74,36.90,39.13,13.28,41.42,1009.29,1987.94,3171.98,2867.66,3253.03,599.90,572.90,32.07,0000 0000 0000 0000 000000
2017-06-27 06:20:21,0.01,0.66,0.00,32.75,36.90,39.14,13.29,41.38,1009.29,1987.94,3171.90,2867.54,3253.01,599.79,572.74,32.12,0000 0000 0000 0000 000000
2017-06-27 06:25:22,0.00,0.66,0.00,32.75,36.90,39.14,13.24,41.38,1009.28,1987.93,3171.73,2867.37,3253.00,599.82,572.66,32.17,0000 0000 0000 0000 000000
2017-06-27 06:30:24,-0.00,0.66,0.00,32.75,36.90,39.14,13.33,41.43,1009.30,1987.88,3171.66,2867.11,3253.00,599.76,572.63,32.22,0000 0000 0000 0000 000000
2017-06-27 06:35:25,-0.01,0.66,0.00,32.77,36.90,39.14,13.27,41.42,1009.33,1987.77,3171.89,2867.10,3253.00,599.93,572.80,32.27,0000 0000 0000 0000 000000
2017-06-27 06:40:26,-0.00,0.66,0.00,32.77,36.90,39.15,13.32,41.42,1009.65,1987.70,3171.84,2867.06,3253.00,599.87,572.91,32.32,0000 0000 0000 0000 000000
2017-06-27 06:45:27,-0.02,0.65,0.00,32.78,36.90,39.14,13.28,41.38,1009.75,1987.52,3171.87,2867.01,3252.99,600.02,573.07,32.37,0000 0000 0000 0000 000000
2017-06-27 06:50:28,-0.01,0.65,0.00,32.80,36.90,39.15,13.31,41.42,1009.78,1987.33,3171.78,2867.00,3252.98,600.11,573.17,32.42,0000 0000 0000 0000 000000
2017-06-27 06:55:30,0.00,0.65,0.00,32.80,36.91,39.14,13.30,41.37,1009.77,1987.26,3171.30,2867.00,3252.87,599.97,573.02,32.47,0000 0000 0000 0000 000000
2017-06-27 07:00:31,0.01,0.65,0.00,32.82,36.92,39.14,13.35,41.38,1009.73,1987.20,3171.11,2867.00,3252.67,600.12,573.07,32.52,0000 0000 0000 0000 000000
2017-06-27 07:05:32,0.00,0.65,0.00,32.82,36.92,39.15,13.29,41.26,1009.78,1987.18,3171.04,2867.00,3252.32,599.96,572.86,32.57,0000 0000 0000 0000 000000
2017-06-27 07:10:34,-0.01,0.65,0.00,32.85,36.93,39.15,13.34,41.24,1009.78,1987.13,3171.07,2866.99,3252.21,600.34,573.33,32.62,0000 0000 0000 0000 000000
2017-06-27 07:15:35,0.00,0.65,0.00,32.87,36.93,39.15,13.29,41.21,1009.77,1987.08,3171.02,2866.93,3252.08,599.89,572.82,32.67,0000 0000 0000 0000 000000
2017-06-27 07:20:36,0.00,0.65,0.00,32.89,36.93,39.15,13.30,41.25,1009.78,1987.08,3171.00,2866.78,3252.01,599.97,572.82,32.72,0000 0000 0000 0000 000000
2017-06-27 07:25:38,0.01,0.65,0.00,32.90,36.93,39.16,13.34,41.24,1009.78,1987.09,3170.99,2866.53,3252.00,600.14,573.01,32.77,0000 0000 0000 0000 000000
2017-06-27 07:30:39,-0.00,0.65,0.00,32.92,36.94,39.17,13.25,41.11,1009.79,1987.07,3170.99,2866.22,3251.99,600.02,572.85,32.82,0000 0000 0000 0000 000000
2017-06-27 07:35:40,-0.00,0.65,0.00,32.95,36.95,39.17,13.25,41.16,1009.81,1987.02,3170.98,2866.05,3251.97,600.22,572.94,32.87,0000 0000 0000 0000 000000
2017-06-27 07:40:42,0.02,0.66,0.00,32.97,36.95,39.17,13.27,41.18,1009.99,1987.01,3170.61,2866.00,3251.61,600.01,572.86,32.93,0000 0000 0000 0000 000000
2017-06-27 07:45:43,-0.00,0.66,0.00,32.99,36.95,39.18,13.25,41.12,1010.23,1987.00,3170.69,2866.00,3251.22,599.92,572.82,32.98,0000 0000 0000 0000 000000
2017-06-27 07:50:44,0.01,0.66,0.00,33.01,36.97,39.18,13.25,41.10,1010.27,1987.00,3170.83,2865.99,3251.12,599.83,572.81,33.03,0000 0000 0000 0000 000000
2017-06-27 07:55:46,0.00,0.66,0.00,33.03,36.98,39.19,13.28,41.24,1010.26,1987.00,3170.74,2865.98,3251.01,600.13,572.89,33.08,0000 0000 0000 0000 000000
2017-06-27 08:00:47,0.00,0.66,0.00,33.06,36.98,39.20,13.33,41.27,1010.27,1987.00,3170.32,2865.95,3251.00,600.12,572.94,33.13,0000 0000 0000 0000 000000
2017-06-27 08:05:48,0.01,0.66,0.00,33.08,37.00,39.21,13.30,41.17,1010.27,1987.00,3170.19,2865.79,3251.00,599.89,572.71,33.18,0000 0000 0000 0000 000000
2017-06-27 08:10:50,0.02,0.66,0.00,33.11,37.00,39.21,13.33,41.71,1010.27,1987.00,3170.02,2865.24,3250.95,600.67,573.40,33.23,0000 0000 0000 0000 000000
2017-06-27 08:15:51,-0.00,0.66,0.00,33.13,37.01,39.22,13.28,41.71,1010.36,1986.92,3170.01,2865.02,3250.72,599.92,572.66,33.28,0000 0000 0000 0000 000000
2017-06-27 08:20:52,0.00,0.66,0.00,33.16,37.03,39.24,13.31,41.56,1010.66,1986.85,3170.01,2865.01,3250.41,600.20,573.08,33.33,0000 0000 0000 0000 000000
2017-06-27 08:25:54,-0.02,0.66,0.00,33.18,37.03,39.26,13.32,41.63,1010.76,1986.56,3170.00,2865.00,3250.03,599.84,572.78,33.38,0000 0000 0000 0000 000000
2017-06-27 08:30:55,-0.02,0.66,0.00,33.20,37.05,39.26,13.21,41.64,1010.79,1986.35,3169.98,2864.96,3250.00,599.94,572.82,33.43,0000 0000 0000 0000 000000
2017-06-27 08:35:57,-0.00,0.66,0.00,33.22,37.05,39.28,13.27,41.72,1010.86,1986.18,3169.82,2864.84,3249.99,599.88,572.75,33.48,0000 0000 0000 0000 000000
2017-06-27 08:40:58,0.02,0.66,0.00,33.23,37.07,39.28,13.24,41.75,1010.84,1986.06,3169.16,2864.28,3249.79,600.10,572.85,33.53,0000 0000 0000 0000 000000
2017-06-27 08:46:00,0.01,0.66,0.00,33.25,37.08,39.30,13.27,41.64,1010.84,1986.06,3169.00,2864.04,3249.28,600.10,572.96,33.58,0000 0000 0000 0000 000000
2017-06-27 08:51:01,0.00,0.66,0.00,33.28,37.10,39.32,13.35,41.62,1010.83,1986.08,3169.00,2864.01,3249.12,599.98,572.74,33.63,0000 0000 0000 0000 000000
2017-06-27 08:56:02,-0.00,0.66,0.00,33.30,37.10,39.32,13.30,41.57,1010.82,1986.03,3169.00,2864.00,3249.04,599.97,572.69,33.68,0000 0000 0000 0000 000000
2017-06-27 09:01:04,0.00,0.66,0.00,33.31,37.12,39.33,13.33,41.45,1010.81,1986.06,3168.97,2864.00,3249.00,600.18,572.90,33.73,0000 0000 0000 0000 000000
2017-06-27 09:06:05,0.00,0.66,0.00,33.34,37.13,39.35,13.26,41.59,1010.77,1986.01,3168.92,2863.99,3249.00,600.09,572.67,33.79,0000 0000 0000 0000 000000
2017-06-27 09:11:06,0.01,0.66,0.00,33.35,37.15,39.36,13.26,41.77,1010.75,1986.00,3168.88,2863.84,3248.90,600.12,572.63,33.84,0000 0000 0000 0000 000000
2017-06-27 09:16:07,0.05,0.66,0.00,33.37,37.16,39.37,13.22,41.74,1010.76,1986.00,3168.17,2863.07,3248.08,599.57,572.13,33.89,0000 0000 0000 0000 000000
2017-06-27 09:21:09,0.00,0.66,0.00,33.40,37.18,39.39,13.27,41.69,1010.76,1985.99,3168.00,2862.99,3247.95,600.08,572.62,33.94,0000 0000 0000 0000 000000
2017-06-27 09:26:10,0.01,0.66,0.00,33.40,37.19,39.41,13.31,41.81,1010.76,1985.94,3167.98,2862.77,3247.45,599.87,572.41,33.99,0000 0000 0000 0000 000000
2017-06-27 09:31:12,0.01,0.66,0.00,33.40,37.20,39.42,13.29,41.81,1010.76,1985.89,3167.90,2862.38,3247.10,600.02,572.57,34.04,0000 0000 0000 0000 000000
2017-06-27 09:36:13,-0.00,0.66,0.00,33.42,37.21,39.43,13.23,41.73,1010.77,1985.76,3167.53,2862.04,3247.00,599.81,572.29,34.09,0000 0000 0000 0000 000000
2017-06-27 09:41:14,-0.01,0.66,0.00,33.43,37.23,39.45,13.28,41.62,1010.88,1985.48,3167.03,2862.00,3246.93,600.18,572.70,34.14,0000 0000 0000 0000 000000
2017-06-27 09:46:15,0.01,0.66,0.00,33.45,37.23,39.46,13.26,41.52,1011.02,1985.31,3166.78,2861.91,3246.37,599.94,572.52,34.19,0000 0000 0000 0000 000000
2017-06-27 09:51:16,0.03,0.66,0.00,33.46,37.25,39.48,13.26,41.46,1011.16,1985.43,3166.09,2861.37,3246.01,599.80,572.38,34.24,0000 0000 0000 0000 000000
2017-06-27 09:56:18,-0.01,0.66,0.00,33.47,37.25,39.48,13.26,41.46,1011.23,1985.21,3166.01,2861.03,3245.98,600.25,572.93,34.29,0000 0000 0000 0000 000000
2017-06-27 10:01:19,0.01,0.66,0.00,33.50,37.27,39.49,13.30,41.24,1011.31,1985.21,3165.99,2861.00,3245.86,600.15,572.73,34.34,0000 0000 0000 0000 000000
2017-06-27 10:06:20,0.01,0.66,0.00,33.52,37.28,39.49,13.38,41.38,1011.48,1985.20,3165.64,2860.98,3245.16,600.29,572.97,34.39,0000 0000 0000 0000 000000
2017-06-27 10:11:21,0.01,0.66,0.00,33.56,37.30,39.50,13.30,41.34,1011.72,1985.12,3165.09,2860.68,3245.00,600.56,573.23,34.44,0000 0000 0000 0000 000000
2017-06-27 10:16:22,0.01,0.66,0.00,33.60,37.30,39.52,13.32,41.43,1011.74,1985.03,3165.04,2860.18,3244.97,600.12,572.87,34.49,0000 0000 0000 0000 000000
2017-06-27 10:21:24,0.01,0.66,0.00,33.65,37.32,39.53,13.24,41.31,1011.78,1985.01,3165.00,2860.01,3244.53,599.71,572.33,34.54,0000 0000 0000 0000 000000
2017-06-27 10:26:25,0.00,0.67,0.00,33.70,37.33,39.55,13.25,41.19,1012.07,1985.00,3164.97,2860.00,3244.06,600.33,572.88,34.59,0000 0000 0000 0000 000000
2017-06-27 10:31:26,0.00,0.67,0.00,33.76,37.35,39.58,13.24,41.27,1011.92,1985.00,3164.90,2859.92,3244.00,599.94,572.40,34.64,0000 0000 0000 0000 000000
2017-06-27 10:36:28,0.01,0.67,0.00,33.82,37.36,39.60,13.24,41.37,1011.86,1985.00,3164.71,2859.63,3243.97,599.69,571.88,34.69,0000 0000 0000 0000 000000
2017-06-27 10:41:29,0.04,0.67,0.00,33.88,37.38,39.63,13.25,41.36,1012.19,1985.00,3164.13,2859.06,3243.36,600.12,572.61,34.75,0000 0000 0000 0000 000000
2017-06-27 10:46:30,0.00,0.67,0.00,33.94,37.40,39.67,13.26,41.17,1012.34,1984.98,3164.01,2859.00,3243.02,600.59,572.93,34.80,0000 0000 0000 0000 000000
2017-06-27 10:51:32,-0.00,0.67,0.00,33.99,37.41,39.73,13.29,41.32,1012.56,1984.93,3164.00,2858.98,3243.00,599.68,572.20,34.85,0000 0000 0000 0000 000000
2017-06-27 10:56:33,0.01,0.67,0.00,34.03,37.44,39.76,13.28,41.14,1012.70,1984.80,3163.94,2858.66,3242.72,600.16,572.56,34.90,0000 0000 0000 0000 000000
2017-06-27 11:01:34,0.01,0.67,0.00,34.06,37.45,39.80,13.21,41.03,1012.72,1984.58,3163.35,2858.06,3242.08,599.68,572.00,34.95,0000 0000 0000 0000 000000
2017-06-27 11:06:35,-0.02,0.67,0.00,34.07,37.48,39.83,13.24,41.09,1012.73,1984.31,3163.03,2858.00,3242.00,599.89,572.16,35.00,0000 0000 0000 0000 000000
2017-06-27 11:11:36,-0.01,0.67,0.00,34.07,37.49,39.87,13.30,41.07,1012.80,1984.12,3163.00,2857.98,3241.94,600.09,572.49,35.05,0000 0000 0000 0000 000000
2017-06-27 11:16:37,0.01,0.67,0.00,34.05,37.50,39.89,13.23,40.94,1012.94,1984.05,3162.98,2857.81,3241.38,599.82,572.40,35.10,0000 0000 0000 0000 000000
2017-06-27 11:21:38,0.03,0.67,0.00,34.04,37.53,39.90,13.29,41.03,1013.12,1984.00,3162.46,2857.19,3241.01,599.86,572.51,35.15,0000 0000 0000 0000 000000
2017-06-27 11:26:39,0.01,0.67,0.00,34.01,37.53,39.92,13.29,40.99,1013.20,1984.00,3162.04,2857.01,3240.97,600.06,572.80,35.20,0000 0000 0000 0000 000000
2017-06-27 11:31:41,0.00,0.67,0.00,33.96,37.55,39.93,13.26,41.04,1013.23,1984.00,3162.00,2857.00,3240.68,599.87,572.75,35.25,0000 0000 0000 0000 000000
2017-06-27 11:36:42,0.00,0.67,0.00,33.89,37.55,39.94,13.24,41.01,1013.61,1984.00,3161.99,2856.99,3240.11,599.91,573.04,35.30,0000 0000 0000 0000 000000
2017-06-27 11:41:43,0.00,0.67,0.00,33.79,37.55,39.94,13.31,40.97,1013.68,1984.00,3161.95,2856.90,3240.02,600.24,573.56,35.35,0000 0000 0000 0000 000000
2017-06-27 11:46:44,0.01,0.67,0.00,33.67,37.55,39.96,13.31,40.88,1013.72,1984.00,3161.85,2856.79,3240.00,600.04,573.63,35.40,0000 0000 0000 0000 000000
2017-06-27 11:51:46,0.01,0.67,0.00,33.55,37.55,39.94,13.29,40.94,1013.86,1984.00,3161.41,2856.54,3240.00,599.75,573.77,35.45,0000 0000 0000 0000 000000
2017-06-27 11:56:47,0.01,0.67,0.00,33.43,37.54,39.92,13.34,40.83,1014.06,1984.00,3161.04,2856.14,3239.97,599.92,574.29,35.50,0000 0000 0000 0000 000000
2017-06-27 12:01:48,0.00,0.67,0.00,33.32,37.53,39.90,13.34,40.88,1014.14,1984.00,3161.00,2856.02,3239.72,599.96,574.52,35.55,0000 0000 0000 0000 000000
2017-06-27 12:06:49,0.00,0.67,0.00,33.23,37.50,39.89,13.41,40.86,1014.17,1984.00,3160.99,2856.00,3239.36,600.35,575.06,35.60,0000 0000 0000 0000 000000
2017-06-27 12:11:51,0.00,0.67,0.00,33.12,37.49,39.90,13.31,40.91,1014.22,1984.00,3160.99,2856.00,3239.37,599.88,574.82,35.65,0000 0000 0000 0000 000000
2017-06-27 12:16:52,-0.00,0.67,0.00,33.03,37.46,39.90,13.40,40.78,1014.50,1984.00,3160.99,2856.01,3239.60,600.02,575.33,35.71,0000 0000 0000 0000 000000
2017-06-27 12:21:53,0.00,0.67,0.00,32.94,37.44,39.88,13.40,40.90,1014.66,1984.01,3160.99,2856.01,3239.61,599.92,575.49,35.76,0000 0000 0000 0000 000000
2017-06-27 12:26:54,0.00,0.67,0.00,32.87,37.40,39.88,13.45,40.90,1014.67,1984.00,3160.99,2856.01,3239.40,600.47,576.12,35.81,0000 0000 0000 0000 000000
2017-06-27 12:31:56,-0.00,0.67,0.00,32.80,37.37,39.86,13.33,40.87,1014.68,1984.04,3160.99,2856.03,3239.56,599.72,575.77,35.86,0000 0000 0000 0000 000000
2017-06-27 12:36:57,0.03,0.67,0.00,32.73,37.34,39.85,13.40,40.83,1014.72,1984.32,3160.99,2856.11,3239.82,599.97,576.01,35.91,0000 0000 0000 0000 000000
2017-06-27 12:41:58,0.03,0.68,0.00,32.67,37.30,39.80,13.35,40.74,1014.81,1984.77,3160.99,2856.29,3239.94,599.96,576.07,35.96,0000 0000 0000 0000 000000
2017-06-27 12:46:59,0.00,0.68,0.00,32.63,37.27,39.76,13.46,40.76,1014.74,1984.92,3160.99,2856.55,3239.99,600.11,576.30,36.01,0000 0000 0000 0000 000000
2017-06-27 12:52:01,-0.00,0.68,0.00,32.58,37.24,39.74,13.42,40.79,1015.00,1984.99,3160.99,2856.90,3239.99,600.04,576.42,36.06,0000 0000 0000 0000 000000
2017-06-27 12:57:02,0.00,0.68,0.00,32.54,37.20,39.72,13.45,40.70,1015.14,1984.99,3160.99,2856.92,3239.99,600.21,576.80,36.11,0000 0000 0000 0000 000000